Location: Newark
(44.3248°N, 23.7839°E)
Time: 10:30:25
(UTC+00:00)

X-37B - Pass Details

Date: 13 June 2023
Orbit: 277 x 277 km, 45.0° (Epoch: 01 November)

Event Time Altitude Azimuth Distance (km) Brightness Sun altitude
Exits shadow 00:45:03 32° 139° (SE) 509 1.0 -15.3°
Drops below altitude 10° 00:47:01 10° 89° (E) 1,101 3.3 -15.1°
Sets 00:49:01 0° 80° (E) 1,916 4.8 -14.9°
